THORAD AGENA D DEB, 4654

Orbit data source: Space-Track

THORAD AGENA D DEB, 4654 is space debris in SSO originally from a launch on Wed, 08 Apr 1970 UTC launched from the Air Force Western Test Range (AFWTR). Debris objects in space refer to the collection of defunct objects orbiting the Earth. Examples of debris include non-operational satellites, rocket bodies, and fragments generated from explosions, collisions, or faulty payload assembly.

Loading next visibility...
Identifier
4654, 1970-025AN
Orbit
SSO
Last TLE update
8 hours ago
Origin
Manufacturer
Unknown
Mission
Spacecraft
Bus & Motor
Unknown
Mass
Unknown
Launch date (UTC)
1970-04-08 (55 years ago)
Launch vehicle
Unknown
Launch site
Air Force Western Test Range (AFWTR)
Object type
Payload
Rocket body
Debris
Shape & HBR
Unknown
Radar Cross Section
Small (<0.1 m²)

Expand to show TLE details & history

TLE from 8 hours ago
0 THORAD AGENA D DEB
1 04654U 70025AN  25186.57065098  .00001775  00000-0  94856-3 0  9990
2 04654 100.0112 311.8808 0025677 302.6118  57.2573 14.14615261790896
Epoch: 2025-07-05T13:41Z
TLE epoch observation values (Epoch: 2025-07-05T13:41:44.244Z)
Latitude
-0.00003°
Longitude
-177.36034°
Altitude
836.486 km
Speed
7.44 km/s
True Right ascension
20h 47m 31s
True Declination
0° 00' 00"
Sunlit
Object was in full shadow at epoch
Visualization orbit readout
Latitude
-32.60232°
Longitude
-170.52321°
Altitude
839.034 km
Speed
7.441 km/s
Apparent Right ascension
21h 34m 00s
Apparent Declination
-35° 58' 47"
Sunlit
Object is in full shadow
Visualization observer readout
Local Sidereal Time
09:57:47
Azimuth
51.852° ENE
Elevation
-83.88°
Doppler factor
1
Orbital elements
Apogee altitude
859.39 km
Perigee altitude
822.318 km
Semi-major axis
7,218.991 km
Eccentricity
0.00257
Inclination
100.0112°
RAAN
311.8808°
Arg. of periapsis
302.6118°
True anomaly
Unknown
Mean anomaly
57.2573°
Eccentric anomaly
Unknown
Mean motion
3.53858 °/min
Orbital period
101.74 mins
BSTAR
0.00094856
Loading maneuver chart data...
Loading SW <> Apogee altitude chart data...

THORAD AGENA D DEB Visibility forecast

Observer location: undefined°, undefined°

Span
Click to sort rows by Start time (UTC) header in descending order
Start Az.
Max El. time (UTC)
Max El. Az.
Max El.
End time (UTC)
End Az.
6 mins2025-07-05 22:45:40.429Z336.693° NNW2025-07-05 22:48:40.429Z300.589° NW17.788°2025-07-05 22:51:40.429Z263.908° W
5 mins2025-07-06 06:51:40.429Z83.074° E2025-07-06 06:53:40.429Z57.498° ENE16.363°2025-07-06 06:56:40.429Z22.863° NE
9 mins2025-07-06 08:29:40.429Z176.777° S2025-07-06 08:33:40.429Z280.629° WNW42.516°2025-07-06 08:38:40.429Z339.479° N
9 mins2025-07-06 20:50:40.429Z31.896° NE2025-07-06 20:54:40.429Z92.721° ESE35.915°2025-07-06 20:59:40.429Z172.322° S
|